Regional Weather Roundup
Issued by NWS

Home | Current Version | Previous Version | Graphics & Text | Print | Product List | Glossary On
Versions: 1 2 3 4 5 6 7 8 9 10 11 12 13 14 15 16 17 18 19 20 21 22 23 24 25 26 27 28 29 30 31 32 33 34 35 36 37 38 39 40 41 42 43 44 45 46 47 48 49 50
000
ASUS43 KFSD 300610
RWRSD

WEATHER ROUNDUP FOR SOUTH DAKOTA
NATIONAL WEATHER SERVICE SIOUX FALLS SD
1200 AM CST FRI JAN 30 2015

NOTE: "FAIR" INDICATES FEW OR NO CLOUDS BELOW 12,000 FEET WITH NO
SIGNIFICANT WEATHER AND/OR OBSTRUCTIONS TO VISIBILITY.


SDZ001>005-009-010-012>017-300700-
NORTHWEST AND NORTH CENTRAL SOUTH DAKOTA

CITY           SKY/WX    TMP DP  RH WIND       PRES   REMARKS
BUFFALO          N/A     28  14  55 S12       30.22F WCI  18
FAITH            N/A     23  16  74 SE17      30.33F WCI   9
MOBRIDGE       CLEAR     22  18  85 SE12      30.41F WCI  10
$$

SDZ012>016-024>037-041>051-057-063-072>074-300700-
SOUTHWEST AND SOUTH CENTRAL SOUTH DAKOTA

CITY           SKY/WX    TMP DP  RH WIND       PRES   REMARKS
RAPID CTY ARPT CLEAR     25  11  55 SE7       30.31F WCI  17
PIERRE         CLEAR     21  18  88 SE9       30.45S WCI  11
CUSTER         CLEAR     29  16  58 SW6       30.28F WCI  23
ELLSWORTH AFB  CLEAR     29  11  46 S7        30.30F WCI  22
PHILIP         CLEAR     22  15  75 E7        30.39F WCI  13
PINE RIDGE     CLEAR     30  14  51 W5        30.34F WCI  25
WINNER         FAIR      23  18  81 SE9       30.45F WCI  13
$$

SDZ004>011-016>023-039-040-300700-
NORTHEAST SOUTH DAKOTA

CITY           SKY/WX    TMP DP  RH WIND       PRES   REMARKS
ABERDEEN       CLEAR     18  13  80 E5        30.51F WCI  11
WATERTOWN      CLOUDY    18  13  80 CALM      30.50S
SISSETON         N/A     16  10  77 NE3       30.55F
$$

SDZ017-020-022-023-036>040-048>070-300700-
SOUTHEAST SOUTH DAKOTA

CITY           SKY/WX    TMP DP  RH WIND       PRES   REMARKS
SIOUX FALLS    MOCLDY    21  16  81 NE6       30.53S WCI  13
HURON          CLEAR     19  16  88 SE5       30.53S WCI  12
CHAMBERLAIN    CLEAR     20  18  91 SE6       30.50S WCI  12
MITCHELL       CLEAR     19  16  88 E5        30.54F WCI  12
YANKTON        CLEAR     21  18  86 CALM      30.56R
$$

ABBREVIATIONS USED IN REMARKS
   TC - TEMPERATURE IN CELSIUS
  WCI - WIND CHILL INDEX
   HX - HEAT INDEX
  VSB - VISIBILITY



USA.gov is the U.S. government's official web portal to all federal, state and local government web resources and services.